Marshfield, WI

6:45 PM CDT on September 17, 2019 (GMT -0500)
Marshfield Municipal

Weather History for KMFI - July, 2019

Change the Weather History Date:

Tuesday, July 23, 2019

  Actual Average Record
Temperature  
Mean Temperature 68 °F -  
Max Temperature 78 °F 81 °F 101 °F (1934)
Min Temperature 57 °F 56 °F 44 °F (1953)
Cooling Degree Days 2    
Growing Degree Days 18 (Base 50)    
Moisture  
Dew Point 58 °F    
Average Humidity 74    
Maximum Humidity 93    
Minimum Humidity 53    
Precipitation  
Precipitation 0.34 in - - ()
Sea Level Pressure  
Sea Level Pressure 30.15 in    
Wind  
Wind Speed 9 mph (NNW)    
Max Wind Speed 31 mph    
Max Gust Speed 46 mph    
Visibility 9 miles    
Events Rain , Thunderstorm    
Averages and records for this station are not official NWS values.
T = Trace of Precipitation, MM = Missing Value Source: NWS Daily Summary

Daily Weather History Graph

Daily Weather History Graph

Search for Another Location

Airport or City:

Astronomy

Jul. 23, 2019 Rise Set
Actual Time 5:37 AM CDT 8:36 PM CDT
Civil Twilight 5:02 AM CDT 9:11 PM CDT
Nautical Twilight 4:18 AM CDT 9:55 PM CDT
Astronomical Twilight 3:25 AM CDT 10:47 PM CDT
Moon No Moon Rise 12:05 PM CDT (7/23)
Length of Visible Light 16h 08m
Length of Day
14h 59m
Waning Gibbous, 63% of the Moon is Illuminated
Jul 23
Waning Gibbous
Jul 24
Last Quarter
Jul 31
New
Aug 7
First Quarter
Aug 15
Full

Hourly Weather History & Observations

Time (CDT) Temp. Dew Point Humidity Pressure Visibility Wind Dir Wind Speed Gust Speed Precip Events Conditions
12:54 AM 62.1 °F 55.9 °F 80% 30.13 in 10.0 mi WNW 6.9 mph - N/A   Mostly Cloudy
1:54 AM 62.1 °F 55.9 °F 80% 30.12 in 10.0 mi NW 10.4 mph - N/A   Partly Cloudy
2:54 AM 61.0 °F 55.9 °F 83% 30.12 in 10.0 mi NW 8.1 mph - N/A   Scattered Clouds
3:54 AM 60.1 °F 55.0 °F 83% 30.13 in 10.0 mi NW 10.4 mph - N/A   Clear
4:54 AM 57.9 °F 55.0 °F 90% 30.14 in 10.0 mi NNW 6.9 mph - N/A   Clear
5:54 AM 57.0 °F 54.0 °F 89% 30.15 in 10.0 mi NW 8.1 mph - N/A   Clear
6:54 AM 60.1 °F 55.0 °F 83% 30.17 in 10.0 mi NW 8.1 mph - N/A   Clear
7:54 AM 63.0 °F 55.9 °F 78% 30.17 in 10.0 mi NNW 10.4 mph - N/A   Clear
8:54 AM 68.0 °F 57.9 °F 70% 30.18 in 10.0 mi North 8.1 mph - N/A   Clear
9:54 AM 70.0 °F 57.9 °F 65% 30.17 in 10.0 mi NNW 6.9 mph - N/A   Clear
10:54 AM 72.0 °F 57.9 °F 61% 30.17 in 10.0 mi NW 8.1 mph - N/A   Clear
11:54 AM 75.0 °F 57.0 °F 53% 30.17 in 10.0 mi NW 12.7 mph 20.7 mph N/A   Clear
12:54 PM 75.9 °F 59.0 °F 56% 30.16 in 10.0 mi NW 9.2 mph 20.7 mph N/A   Clear
1:54 PM 78.1 °F 60.1 °F 54% 30.14 in 10.0 mi NW 10.4 mph - N/A   Clear
2:35 PM 73.9 °F 57.9 °F 57% 30.15 in 10.0 mi NW 11.5 mph 19.6 mph N/A Thunderstorm Mostly Cloudy
2:41 PM 69.1 °F 57.0 °F 65% 30.18 in 2.0 mi NNE 31.1 mph 46.0 mph 0.06 in Rain , Thunderstorm Light Thunderstorms and Rain
2:43 PM 64.0 °F 55.0 °F 73% 30.18 in 0.8 mi NNE 25.3 mph 46.0 mph 0.18 in Rain , Thunderstorm Heavy Thunderstorms and Rain
2:58 PM 63.0 °F 55.9 °F 78% 30.16 in - NNW 8.1 mph - 0.34 in Rain , Thunderstorm Light Thunderstorms and Rain
3:22 PM 70.0 °F 60.1 °F 71% 30.15 in 10.0 mi NNE 5.8 mph - 0.34 in Thunderstorm Scattered Clouds
3:31 PM 73.0 °F 62.1 °F 68% 30.15 in 10.0 mi NNE 5.8 mph - 0.34 in   Partly Cloudy
3:54 PM 75.9 °F 61.0 °F 60% 30.13 in 10.0 mi Variable 4.6 mph - 0.34 in Rain Light Rain
4:54 PM 69.1 °F 61.0 °F 75% 30.14 in 10.0 mi WNW 5.8 mph - 0.00 in Rain Light Rain
5:54 PM 72.0 °F 59.0 °F 64% 30.12 in 10.0 mi NW 5.8 mph - 0.00 in   Mostly Cloudy
6:54 PM 68.0 °F 60.1 °F 76% 30.12 in 10.0 mi West 6.9 mph - N/A   Partly Cloudy
7:54 PM 68.0 °F 61.0 °F 78% 30.12 in 10.0 mi NW 4.6 mph 17.3 mph N/A   Partly Cloudy
8:54 PM 64.0 °F 60.1 °F 87% 30.13 in 10.0 mi ENE 5.8 mph - N/A   Clear
9:54 PM 62.1 °F 59.0 °F 90% 30.13 in 10.0 mi Calm Calm - N/A   Mostly Cloudy
10:54 PM 60.1 °F 57.9 °F 93% 30.14 in 9.0 mi NW 3.5 mph - N/A   Clear
11:54 PM 61.0 °F 57.9 °F 90% 30.14 in 9.0 mi NW 4.6 mph - N/A   Clear